Showing default

GALILEO 15 (267), 41859

Orbit data source: Space-Track

GALILEO 15 (267), 41859 is a payload satellite owned by GNSS Agency (ESA) that was launched on Thu, 17 Nov 2016 UTC via an ARIANE 5ES launch vehicle from the French Guiana (FRGUI). Payload-class satellites include a variety of spacecraft equipped with specific instruments for various scientific and technological missions. These include communications satellites like Starlink; space stations such as the ISS; scientific satellites like the Hubble; Earth observation satellites from companies like Planet Labs, Umbra, and HawkEye 360; GPS; miniature CubeSats for education and research; and military/defense satellites.

Loading next visibility...
Identifier
41859, 2016-069A
Orbit
Active
Last TLE update
2 days ago
Origin
Manufacturer
OHB
Mission
Operational Civil Navigation
Bus & Motor
GALILEOSAT, AOCS
Mass
738 kg wet, 700 kg dry
Launch date (UTC)
2016-11-17 (9 years ago)
Launch vehicle
ARIANE 5ES
Launch site
French Guiana (FRGUI)
Object type
Payload
Rocket body
Debris
Shape & HBR
Box + 2 Pan, 14.71 m
Radar Cross Section
9.223 m², Large (>1 m²)

Expand to show TLE details & history

TLE from 2 days ago
0 GALILEO 15 (267)
1 41859U 16069A   25187.83417592 -.00000021  00000-0  00000-0 0  9995
2 41859  55.2867 110.6532 0004808 321.6039  38.3433  1.70473801 53513
Epoch: 2025-07-06T20:01Z
TLE epoch observation values (Epoch: 2025-07-06T20:01:12.799Z)
Latitude
0.00008°
Longitude
-114.70273°
Altitude
23,211.309 km
Speed
3.671 km/s
True Right ascension
07h 22m 36s
True Declination
0° 00' 00"
Sunlit
Object was in daylight at epoch
Visualization orbit readout
Latitude
17.21012°
Longitude
-102.38957°
Altitude
23,214.818 km
Speed
3.671 km/s
Apparent Right ascension
08h 51m 37s
Apparent Declination
9° 40' 15"
Sunlit
Object is in daylight
Visualization observer readout
Local Sidereal Time
03:11:27
Azimuth
85.68° E
Elevation
9.969°
Doppler factor
1
Orbital elements
Apogee altitude
23,236.436 km
Perigee altitude
23,207.972 km
Semi-major axis
29,600.341 km
Eccentricity
0.00048
Inclination
55.2867°
RAAN
110.6532°
Arg. of periapsis
321.6039°
True anomaly
Unknown
Mean anomaly
38.3433°
Eccentric anomaly
Unknown
Mean motion
0.42618 °/min
Orbital period
844.7 mins
BSTAR
0
Loading maneuver chart data...
Loading SW <> Apogee altitude chart data...
Loading historical data...
Loading historical data...
Loading historical data...
Loading historical data...
Loading historical data...
Loading historical data...
Loading historical data...
Other satellites on launch #69 in the year 2016 (2016-11-17 UTC)

GALILEO 15 (267) Visibility forecast

Observer location: undefined°, undefined°

Span
Click to sort rows by Start time (UTC) header in descending order
Start Az.
Max El. time (UTC)
Max El. Az.
Max El.
End time (UTC)
End Az.
155 mins2025-07-08 15:05:38.774Z85.396° E2025-07-08 16:24:38.774Z58.261° ENE18.087°2025-07-08 17:40:38.774Z35.586° NE
221 mins2025-07-09 07:33:38.774Z323.406° NNW2025-07-09 09:22:38.774Z293.023° NW25.502°2025-07-09 11:14:38.774Z253.656° W
|